Regional Weather Roundup
Issued by NWS

Home | Current Version | Previous Version | Text Only | Print | Product List | Glossary Off
Versions: 1 2 3 4 5 6 7 8 9 10 11 12 13 14 15 16 17 18 19 20 21 22 23 24 25 26 27 28

000
ASUS45 KTFX 241010
RWRMT
MONTANA REGIONAL WEATHER ROUNDUP
NATIONAL WEATHER SERVICE GREAT FALLS MT
400 AM MDT WED AUG 24 2016

NOTE: "FAIR" INDICATES FEW OR NO CLOUDS BELOW 12000 FEET WITH NO
SIGNIFICANT WEATHER AND/OR OBSTRUCTIONS TO VISIBILITY.

MTZ001>007-043-241100-
WEST OF THE DIVIDE

CITY           SKY/WX    TMP DP  RH WIND       PRES   REMARKS
KALISPELL        N/A     58  42  55 N18       30.23S
MISSOULA         N/A     54  46  74 MISG      30.24R
BUTTE          CLEAR     39  30  70 SE7       30.31S
MULLAN PASS      N/A     49  36  61 CALM      30.30S
DEER LODGE       N/A     50  39  66 NW7       30.32S
EUREKA           N/A     52  43  71 CALM      30.27R
HAMILTON         N/A     46  36  66 SE5       30.24R
LIBBY            N/A     52  43  71 SE3       30.25R
PLAINS           N/A     51  47  86 CALM      30.22S
THOMPSON FALLS   N/A     48  39  71 CALM      30.26
$$

MTZ008-052>055-241100-
SOUTHWEST MONTANA

CITY           SKY/WX    TMP DP  RH WIND       PRES   REMARKS
BOZEMAN        CLEAR     44  39  82 E6        30.28R
DILLON         CLEAR     44  34  67 E8        30.26R
W YELLOWSTONE  PTCLDY    32  18  55 CALM      30.30S
ENNIS          CLEAR     46  36  66 E5G12     30.32S
THREE FORKS      N/A     51  38  61 CALM      30.25R
TWIN BRIDGES     N/A     52  36  54 N14       30.21R
$$

MTZ009-010-012-014-046-048-049-054-241100-
EAST SLOPES AND CENTRAL MONTANA

CITY           SKY/WX    TMP DP  RH WIND       PRES   REMARKS
CUT BANK       CLOUDY    50  43  77 NW13      30.29R
GREAT FALLS    CLOUDY    53  44  71 W5        30.30S
MALMSTROM AFB  CLOUDY    54  47  76 MISG      30.29R
HELENA         CLOUDY    58  42  55 NW8       30.29R
CHOTEAU          N/A     54  45  71 N13G21    30.32R
CONRAD           N/A     52  49  89 W9        30.28R
$$

MTZ011-013-016-021-045-047-050-051-241100-
NORTH CENTRAL MONTANA

CITY           SKY/WX    TMP DP  RH WIND       PRES   REMARKS
HAVRE          LGT RAIN  56  52  86 NW14      30.19R
LEWISTOWN      CLOUDY    54  46  74 NW13      30.26R
N BAR RANCH    CLOUDY    52  45  76 W16G24    30.25S
CHINOOK          N/A     57  52  82 W14G21    30.16R
$$

MTZ017>020-022>027-061-062-241100-
NORTHEAST MONTANA

CITY           SKY/WX    TMP DP  RH WIND       PRES   REMARKS
GLASGOW        CLEAR     55  49  80 W21       30.04S
JORDAN           N/A     57  48  72 W15       30.12S
SIDNEY         CLEAR     58  49  72 W20G30    29.98F
WOLF POINT     CLEAR     56  50  80 W13       30.02S
POPLAR           N/A     55  50  82 W14       30.01R
SCOBEY           N/A     55  44  66 W15       29.97R
$$

MTZ028>42-056>058-241100-
SOUTHCENTRAL AND SOUTHEAST MONTANA

CITY           SKY/WX    TMP DP  RH WIND       PRES   REMARKS
BAKER          CLEAR     52  45  77 W14       30.10R
BILLINGS       CLEAR     54  43  66 CALM      30.23R
LIVINGSTON     CLEAR     42  36  79 SW5       30.28S
MILES CITY     CLEAR     56  46  69 W15       30.12R
EKALAKA          N/A     52  43  71 W10       30.10S
FORSYTH          N/A     55  46  71 W9        30.15S
LAUREL           N/A     49  41  74 CALM      30.20S
ROUNDUP          N/A     58  42  55 W9        30.11S
$$

REGIONAL REPORTS...DAKOTAS

CITY           SKY/WX    TMP DP  RH WIND       PRES   REMARKS
WILLISTON      PTCLDY    59  48  67 W21       29.94S
MINOT          CLEAR     58  49  72 SW12      29.89R
DICKINSON      CLEAR     55  47  74 W16       30.00S
CROSBY         MOCLDY    55  50  82 W13G18    29.91S
BISMARCK       CLEAR     56  47  71 W9        29.97R
GRAND FORKS    PTCLDY    56  52  86 W6        29.80S
FARGO          CLEAR     58  51  78 W6        29.84R
BUFFALO SD       N/A     56  46  69 W16       30.03S
RAPID CITY     PTCLDY    61  38  42 N14       30.12R
$$

REGIONAL REPORTS...WYOMING/IDAHO/WASHINGTON

CITY           SKY/WX    TMP DP  RH WIND       PRES   REMARKS
GILLETTE       CLEAR     49  41  74 NW5       30.21R
SHERIDAN       CLEAR     48  42  80 W5        30.22S
BUFFALO WY     CLEAR     52  40  63 N10       30.25R
CODY           CLEAR     52  37  58 N8        30.27S
YELLOWSTONE LA   N/A     37  24  59 CALM      30.34F
IDAHO FALLS    CLEAR     38  30  73 N3        30.16S
SALMON         CLEAR    N/A N/A N/A MISG        N/A
BOISE            N/A     55  38  52 SW5       30.10R
SPOKANE        MOCLDY    62  43  49 NE7       30.18R
$$

REGIONAL REPORTS...ALBERTA

CITY           SKY/WX    TMP DP  RH WIND       PRES   REMARKS
EDMONTON       PTCLDY    50  46  87 W9        30.24S
CALGARY        MOCLDY    48  43  81 N7        30.32R
LETHBRIDGE     PTCLDY    50  46  87 NW14      30.29R
MEDICINE HAT   LGT RAIN  54  48  82 W15       30.20S
WATERTON GATE    N/A     48  46  93 S2          N/A
CARDSTON         N/A     50  43  76 NW6         N/A
MILK RIVER       N/A     52  46  82 NW15        N/A
ONEFOUR          N/A     50  46  87 NW15        N/A
$$

REGIONAL REPORTS...SASKATCHEWAN

CITY           SKY/WX    TMP DP  RH WIND       PRES   REMARKS
SWIFT CURRENT  LGT RAIN  48  48 100 NW22G28   30.01S FOG
REGINA         LGT RAIN  54  52  94 W15G26    29.85S
SASKATOON      LGT RAIN  54  54 100 N16       29.98R
CYPRESS HILLS    N/A     43  39  87 NW13G21     N/A
VAL MARIE        N/A     52  45  76 NW22G31     N/A
ROCKGLEN         N/A     50  48  93 NW16G22     N/A
ASSINIBOIA       N/A     52  48  87 W12         N/A
$$




USA.gov is the U.S. government's official web portal to all federal, state and local government web resources and services.